| time (UTC) | temp F | wind direction | speed MPH | gust MPH | rain 1hr in | rain 24hr in | rain mn in | humidity % | barometer mb |
| 20260904050105 | 54 | 0 | 0.0 | 0.0 | 0.00 | 0.00 | 0.00 | 48 | 1019.9 |
| 20260904044603 | 54 | 0 | 0.0 | 0.0 | 0.00 | 0.00 | 0.00 | 56 | 1020.1 |
| 20260904043100 | 55 | 0 | 0.0 | 0.0 | 0.00 | 0.00 | 0.00 | 61 | 1020.2 |
| 20260904041605 | 56 | 0 | 0.0 | 0.0 | 0.00 | 0.00 | 0.00 | 62 | 1020.2 |
| 20260904040106 | 56 | 0 | 0.0 | 0.0 | 0.00 | 0.00 | 0.00 | 60 | 1020.1 |
| 20260904034601 | 56 | 0 | 0.0 | 0.0 | 0.00 | 0.00 | 0.00 | 59 | 1020.0 |
| 20260904033102 | 58 | 0 | 0.0 | 0.0 | 0.00 | 0.00 | 0.00 | 59 | 1019.8 |
| 20260904031603 | 57 | 0 | 0.0 | 0.0 | 0.00 | 0.00 | 0.00 | 56 | 1019.8 |
| 20260904030106 | 58 | 0 | 0.0 | 0.0 | 0.00 | 0.00 | 0.00 | 54 | 1019.8 |
| 20260904024556 | 59 | 0 | 0.0 | 0.0 | 0.00 | 0.00 | 0.00 | 56 | 1019.8 |
| 20260904023102 | 59 | 0 | 0.0 | 0.0 | 0.00 | 0.00 | 0.00 | 56 | 1019.8 |
| 20260904021558 | 60 | 0 | 0.0 | 0.0 | 0.00 | 0.00 | 0.00 | 55 | 1019.7 |
| 20260904020055 | 61 | 0 | 0.0 | 0.0 | 0.00 | 0.00 | 0.00 | 54 | 1019.8 |
| 20260904014608 | 62 | 0 | 0.0 | 3.0 | 0.00 | 0.00 | 0.00 | 53 | 1019.9 |
| 20260904013057 | 63 | 0 | 1.0 | 4.0 | 0.00 | 0.00 | 0.00 | 55 | 1020.0 |
| 20260904011556 | 64 | 322 | 1.0 | 7.0 | 0.00 | 0.00 | 0.00 | 46 | 1019.8 |
| 20260904010115 | 64 | 0 | 2.0 | 5.0 | 0.00 | 0.00 | 0.00 | 49 | 1019.8 |
| 20260904004559 | 65 | 17 | 1.0 | 4.0 | 0.00 | 0.00 | 0.00 | 50 | 1019.9 |
| 20260904003055 | 65 | 0 | 0.0 | 4.0 | 0.00 | 0.00 | 0.00 | 50 | 1019.9 |
| 20260904001601 | 66 | 9 | 1.0 | 8.0 | 0.00 | 0.00 | 0.00 | 49 | 1019.9 |
| 20260904000104 | 67 | 0 | 0.0 | 5.0 | 0.00 | 0.00 | 0.00 | 46 | 1019.9 |
| 20260903234558 | 68 | 0 | 0.0 | 4.0 | 0.00 | 0.00 | 0.00 | 44 | 1019.9 |
| 20260903233105 | 69 | 347 | 2.0 | 5.0 | 0.00 | 0.00 | 0.00 | 42 | 1020.1 |
| 20260903231554 | 70 | 352 | 1.0 | 7.0 | 0.00 | 0.00 | 0.00 | 42 | 1020.4 |
| 20260903230100 | 71 | 16 | 2.0 | 7.0 | 0.00 | 0.00 | 0.00 | 40 | 1020.5 |
| 20260903224553 | 72 | 0 | 1.0 | 5.0 | 0.00 | 0.00 | 0.00 | 41 | 1020.6 |
| 20260903223103 | 71 | 292 | 1.0 | 5.0 | 0.00 | 0.00 | 0.00 | 41 | 1020.9 |
| 20260903221558 | 71 | 0 | 0.0 | 7.0 | 0.00 | 0.00 | 0.00 | 41 | 1020.9 |
| 20260903220057 | 71 | 303 | 2.0 | 6.0 | 0.00 | 0.00 | 0.00 | 41 | 1021.1 |
| 20260903214603 | 73 | 290 | 2.0 | 6.0 | 0.00 | 0.00 | 0.00 | 40 | 1021.2 |
| 20260903213104 | 72 | 355 | 1.0 | 10.0 | 0.00 | 0.00 | 0.00 | 40 | 1021.4 |
| 20260903211559 | 72 | 348 | 2.0 | 8.0 | 0.00 | 0.00 | 0.00 | 42 | 1021.3 |
| 20260903210114 | 71 | 99 | 3.0 | 9.0 | 0.00 | 0.00 | 0.00 | 42 | 1021.3 |
| 20260903204620 | 73 | 14 | 3.0 | 7.0 | 0.00 | 0.00 | 0.00 | 39 | 1021.1 |
| 20260903203100 | 72 | 17 | 2.0 | 7.0 | 0.00 | 0.00 | 0.00 | 39 | 1021.3 |
| 20260903201600 | 71 | 286 | 2.0 | 8.0 | 0.00 | 0.00 | 0.00 | 36 | 1021.4 |
| 20260903194556 | 71 | 5 | 3.0 | 11.0 | 0.00 | 0.00 | 0.00 | 35 | 1021.5 |
| 20260903193101 | 73 | 317 | 2.0 | 8.0 | 0.00 | 0.00 | 0.00 | 36 | 1021.6 |
| 20260903191559 | 72 | 257 | 1.0 | 6.0 | 0.00 | 0.00 | 0.00 | 33 | 1021.8 |
| 20260903190104 | 72 | 281 | 3.0 | 7.0 | 0.00 | 0.00 | 0.00 | 29 | 1021.9 |
| 20260903184555 | 72 | 286 | 1.0 | 6.0 | 0.00 | 0.00 | 0.00 | 28 | 1022.1 |
| 20260903183106 | 72 | 296 | 2.0 | 5.0 | 0.00 | 0.00 | 0.00 | 27 | 1022.2 |
| 20260903181604 | 70 | 292 | 4.0 | 9.0 | 0.00 | 0.00 | 0.00 | 26 | 1022.1 |
| 20260903174604 | 70 | 15 | 3.0 | 7.0 | 0.00 | 0.00 | 0.00 | 27 | 1022.0 |
| 20260903173103 | 69 | 341 | 2.0 | 5.0 | 0.00 | 0.00 | 0.00 | 28 | 1022.0 |
| 20260903171602 | 70 | 280 | 2.0 | 5.0 | 0.00 | 0.00 | 0.00 | 27 | 1021.9 |
| 20260903170100 | 69 | 202 | 0.0 | 3.0 | 0.00 | 0.00 | 0.00 | 23 | 1021.7 |
| 20260903164606 | 68 | 0 | 0.0 | 5.0 | 0.00 | 0.00 | 0.00 | 26 | 1021.7 |
| 20260903163111 | 65 | 0 | 0.0 | 5.0 | 0.00 | 0.00 | 0.00 | 29 | 1021.6 |
| 20260903161602 | 64 | 24 | 0.0 | 6.0 | 0.00 | 0.00 | 0.00 | 30 | 1021.5 |
| 20260903160108 | 63 | 0 | 0.0 | 0.0 | 0.00 | 0.00 | 0.00 | 33 | 1021.5 |
| 20260903154605 | 61 | 0 | 0.0 | 3.0 | 0.00 | 0.00 | 0.00 | 36 | 1021.5 |
| 20260903153111 | 60 | 9 | 1.0 | 5.0 | 0.00 | 0.00 | 0.00 | 39 | 1021.4 |
| 20260903151604 | 58 | 24 | 1.0 | 5.0 | 0.00 | 0.00 | 0.00 | 43 | 1021.3 |
| 20260903150113 | 57 | 0 | 0.0 | 4.0 | 0.00 | 0.00 | 0.00 | 45 | 1021.1 |
| 20260903144607 | 56 | 336 | 2.0 | 4.0 | 0.00 | 0.00 | 0.00 | 45 | 1021.1 |
| 20260903143110 | 56 | 334 | 2.0 | 3.0 | 0.00 | 0.00 | 0.00 | 46 | 1021.0 |
| 20260903141602 | 55 | 334 | 2.0 | 4.0 | 0.00 | 0.00 | 0.00 | 46 | 1020.7 |
| 20260903140114 | 54 | 334 | 1.0 | 3.0 | 0.00 | 0.00 | 0.00 | 46 | 1020.7 |
| 20260903134610 | 54 | 321 | 1.0 | 4.0 | 0.00 | 0.00 | 0.00 | 45 | 1020.7 |
| 20260903133107 | 54 | 321 | 2.0 | 4.0 | 0.00 | 0.00 | 0.00 | 45 | 1020.5 |
| 20260903131607 | 54 | 320 | 2.0 | 4.0 | 0.00 | 0.00 | 0.00 | 45 | 1020.5 |
| 20260903130105 | 54 | 316 | 2.0 | 4.0 | 0.00 | 0.00 | 0.00 | 44 | 1020.4 |
| 20260903124612 | 55 | 314 | 2.0 | 5.0 | 0.00 | 0.00 | 0.00 | 39 | 1020.4 |
| 20260903123106 | 55 | 315 | 3.0 | 4.0 | 0.00 | 0.00 | 0.00 | 37 | 1020.4 |
| 20260903121606 | 55 | 315 | 3.0 | 5.0 | 0.00 | 0.00 | 0.00 | 37 | 1020.5 |
| 20260903120108 | 55 | 324 | 2.0 | 4.0 | 0.00 | 0.00 | 0.00 | 37 | 1020.6 |
| 20260903114605 | 55 | 5 | 2.0 | 4.0 | 0.00 | 0.00 | 0.00 | 37 | 1020.7 |
| 20260903113108 | 55 | 13 | 2.0 | 5.0 | 0.00 | 0.00 | 0.00 | 39 | 1020.7 |
| 20260903111557 | 55 | 9 | 2.0 | 5.0 | 0.00 | 0.00 | 0.00 | 41 | 1020.7 |
| 20260903104558 | 55 | 349 | 1.0 | 4.0 | 0.00 | 0.00 | 0.00 | 38 | 1020.8 |
| 20260903103101 | 56 | 349 | 1.0 | 4.0 | 0.00 | 0.00 | 0.00 | 36 | 1021.0 |
| 20260903101556 | 56 | 360 | 2.0 | 5.0 | 0.00 | 0.00 | 0.00 | 35 | 1021.1 |
| 20260903100105 | 56 | 338 | 2.0 | 4.0 | 0.00 | 0.00 | 0.00 | 29 | 1021.3 |
| 20260903094605 | 56 | 348 | 2.0 | 4.0 | 0.00 | 0.00 | 0.00 | 25 | 1021.3 |
| 20260903093119 | 56 | 324 | 2.0 | 4.0 | 0.00 | 0.00 | 0.00 | 22 | 1021.4 |
| 20260903091556 | 57 | 323 | 2.0 | 4.0 | 0.00 | 0.00 | 0.00 | 17 | 1021.6 |
| 20260903090106 | 57 | 323 | 2.0 | 5.0 | 0.00 | 0.00 | 0.00 | 13 | 1021.7 |
| 20260903084556 | 56 | 331 | 1.0 | 4.0 | 0.00 | 0.00 | 0.00 | 11 | 1021.8 |
| 20260903083059 | 56 | 0 | 0.0 | 2.0 | 0.00 | 0.00 | 0.00 | 10 | 1022.0 |
| 20260903081603 | 56 | 0 | 0.0 | 3.0 | 0.00 | 0.00 | 0.00 | 9 | 1022.0 |
| 20260903080117 | 56 | 355 | 2.0 | 4.0 | 0.00 | 0.00 | 0.00 | 9 | 1022.1 |
| 20260903074621 | 56 | 0 | 0.0 | 2.0 | 0.00 | 0.00 | 0.00 | 8 | 1022.2 |
| 20260903073111 | 56 | 350 | 1.0 | 4.0 | 0.00 | 0.00 | 0.00 | 7 | 1022.2 |
| 20260903071612 | 57 | 350 | 1.0 | 4.0 | 0.00 | 0.00 | 0.00 | 8 | 1022.2 |
| 20260903070110 | 57 | 0 | 0.0 | 1.0 | 0.00 | 0.00 | 0.00 | 9 | 1022.3 |
| 20260903064555 | 57 | 0 | 0.0 | 3.0 | 0.00 | 0.00 | 0.00 | 10 | 1022.4 |
| 20260903063104 | 58 | 346 | 1.0 | 4.0 | 0.00 | 0.00 | 0.00 | 9 | 1022.4 |
| 20260903061608 | 58 | 59 | 0.0 | 4.0 | 0.00 | 0.00 | 0.00 | 9 | 1022.2 |
| 20260903060100 | 58 | 0 | 0.0 | 0.0 | 0.00 | 0.00 | 0.00 | 10 | 1022.4 |
| 20260903054609 | 59 | 0 | 0.0 | 3.0 | 0.00 | 0.00 | 0.00 | 12 | 1022.4 |
| 20260903053102 | 59 | 263 | 0.0 | 3.0 | 0.00 | 0.00 | 0.00 | 12 | 1022.6 |
| 20260903051602 | 59 | 0 | 0.0 | 0.0 | 0.00 | 0.00 | 0.00 | 14 | 1022.7 |